Volver al catálogo

DELTA 1 DEB

ActivoLEO
NORAD 10872·DEBRIS·🇺🇸 United States

Lanzado Jul 29, 1976 desde Vandenberg Space Force Base

Loading…

Próximos Pases (próximas 24 horas)

TLE

ActualizadoSource: Space-Track

Época: Sep 13, 2026, 11:15 UTC

1 10872U 76077DA  26256.46934687  .00000057  00000-0  84122-3 0  9995
2 10872 101.4777 255.4535 0098129 208.7152 307.3369 12.27181530242706

Sigue DELTA 1 DEB en tiempo real con AllMySat

Download on the App Store